Cleveland, OH

6:43 PM EDT on July 26, 2016 (GMT -0400)
Burke Lakefront

Weather History for KBKL - May, 2013

Change the Weather History Date:

Friday, May 17, 2013

  Actual Average Record
Temperature  
Mean Temperature 59 °F -  
Max Temperature 64 °F 65 °F 87 °F (1999)
Min Temperature 54 °F 50 °F 43 °F (2002)
Degree Days  
Heating Degree Days 6    
Growing Degree Days 9 (Base 50)    
Moisture  
Dew Point 49 °F    
Average Humidity 73    
Maximum Humidity 84    
Minimum Humidity 43    
Precipitation  
Precipitation 0.00 in - - ()
Sea Level Pressure  
Sea Level Pressure 30.09 in    
Wind  
Wind Speed 10 mph (NE)    
Max Wind Speed 20 mph    
Max Gust Speed 26 mph    
Visibility 10 miles    
Events      
Averages and records for this station are not official NWS values.
T = Trace of Precipitation, MM = Missing Value Source: NWS Daily Summary

Daily Weather History Graph

Daily Weather History Graph

Search for Another Location

Airport or City:

Trip Planner

Search our weather history database for the weather conditions in past years. The results will help you decide how hot, cold, wet, or windy it might be!

Date:

Astronomy

May. 17, 2013 Rise Set
Actual Time 6:05 AM EDT 8:41 PM EDT
Civil Twilight 5:33 AM EDT 9:13 PM EDT
Nautical Twilight 4:53 AM EDT 9:53 PM EDT
Astronomical Twilight 4:09 AM EDT 10:38 PM EDT
Moon 12:38 PM EDT (5/17) 1:31 AM EDT (5/17)
Length of Visible Light 15h 39m
Length of Day
14h 35m
Waxing Crescent, 45% of the Moon is Illuminated
May 17
Waxing Crescent
May 18
First Quarter
May 25
Full
May 31
Last Quarter
Jun 8
New

Hourly Weather History & Observations

Time (EDT) Temp. Dew Point Humidity Pressure Visibility Wind Dir Wind Speed Gust Speed Precip Events Conditions
12:53 AM 64.0 °F 41.0 °F 43% 29.99 in 10.0 mi ESE 4.6 mph - N/A   Mostly Cloudy
1:53 AM 57.9 °F 51.1 °F 78% 30.01 in 10.0 mi NNE 8.1 mph - N/A   Partly Cloudy
2:53 AM 57.9 °F 51.1 °F 78% 30.01 in 10.0 mi NE 10.4 mph - N/A   Clear
3:53 AM 55.9 °F 51.1 °F 84% 30.02 in 10.0 mi NE 8.1 mph - N/A   Clear
4:53 AM 55.0 °F 45.0 °F 69% 30.03 in 10.0 mi ENE 4.6 mph - N/A   Clear
5:53 AM 54.0 °F 43.0 °F 66% 30.04 in 10.0 mi NE 5.8 mph - N/A   Clear
6:53 AM 54.0 °F 46.9 °F 77% 30.07 in 10.0 mi NE 10.4 mph - N/A   Clear
8:53 AM 59.0 °F 48.9 °F 69% 30.10 in 10.0 mi NNE 6.9 mph - N/A   Clear
9:53 AM 57.9 °F 50.0 °F 75% 30.11 in 10.0 mi NE 13.8 mph - N/A   Clear
10:53 AM 57.9 °F 52.0 °F 81% 30.12 in 10.0 mi NE 12.7 mph - N/A   Clear
11:53 AM 57.9 °F 51.1 °F 78% 30.13 in 10.0 mi NE 18.4 mph 23.0 mph N/A   Clear
12:53 PM 59.0 °F 48.9 °F 69% 30.12 in 10.0 mi NE 16.1 mph 24.2 mph N/A   Partly Cloudy
1:53 PM 60.1 °F 51.1 °F 72% 30.12 in 10.0 mi NE 18.4 mph 25.3 mph N/A   Clear
2:53 PM 59.0 °F 48.9 °F 69% 30.12 in 10.0 mi NE 19.6 mph 26.5 mph N/A   Clear
3:53 PM 57.9 °F 48.9 °F 72% 30.12 in 10.0 mi NE 16.1 mph 25.3 mph N/A   Clear
4:53 PM 57.9 °F 48.9 °F 72% 30.10 in 10.0 mi NE 17.3 mph 24.2 mph N/A   Clear
5:53 PM 59.0 °F 48.9 °F 69% 30.10 in 10.0 mi NE 15.0 mph 23.0 mph N/A   Clear
6:53 PM 57.9 °F 50.0 °F 75% 30.10 in 10.0 mi NE 13.8 mph - N/A   Clear
7:53 PM 57.0 °F 51.1 °F 81% 30.11 in 10.0 mi NE 10.4 mph - N/A   Clear
8:53 PM 55.9 °F 50.0 °F 80% 30.12 in 10.0 mi NE 9.2 mph - N/A   Clear
9:53 PM 55.9 °F 50.0 °F 80% 30.14 in 10.0 mi NE 8.1 mph - N/A   Clear
10:53 PM 55.9 °F 50.0 °F 80% 30.14 in 10.0 mi NE 10.4 mph - N/A   Clear
11:53 PM 59.0 °F 42.1 °F 53% 30.13 in 10.0 mi ENE 6.9 mph - N/A   Overcast